GW4799 Weather Reports


Display with metric or nautical units.
time (UTC)temp
F
wind
direction
speed
MPH
gust
MPH
rain 1hr
in
rain 24hr
in
rain mn
in
humidity
%
barometer
mb
20260509135022 41 321 1.0 2.0 0.00 0.00 0.00 100 1025.7
20260509134515 41 327 1.0 2.0 0.00 0.00 0.00 100 1025.8
20260509134013 41 131 0.0 1.0 0.00 0.00 0.00 100 1025.8
20260509133513 42 182 0.0 1.0 0.00 0.00 0.00 100 1025.9
20260509133027 42 264 0.0 1.0 0.00 0.00 0.00 100 1025.8
20260509132524 42 21 0.0 1.0 0.00 0.00 0.00 100 1025.7
20260509132015 42 66 1.0 2.0 0.00 0.00 0.00 100 1025.8
20260509131514 42 140 1.0 2.0 0.00 0.00 0.00 100 1025.8
20260509131019 42 171 1.0 2.0 0.00 0.00 0.00 100 1026.0
20260509130522 42 142 1.0 2.0 0.00 0.00 0.00 100 1026.0
20260509130118 42 127 1.0 2.0 0.00 0.00 0.00 100 1025.9
20260509125524 42 77 0.0 2.0 0.00 0.00 0.00 99 1026.0
20260509125023 42 20 0.0 1.0 0.00 0.00 0.00 100 1025.9
20260509124513 42 17 0.0 1.0 0.00 0.00 0.00 100 1025.9
20260509124054 42 32 0.0 1.0 0.00 0.00 0.00 100 1025.9
20260509123523 42 24 1.0 3.0 0.00 0.00 0.00 100 1025.8
20260509123022 43 21 1.0 3.0 0.00 0.00 0.00 100 1025.9
20260509122524 43 131 1.0 3.0 0.00 0.00 0.00 100 1025.9
20260509122023 43 176 1.0 2.0 0.00 0.00 0.00 100 1025.7
20260509121513 44 147 1.0 2.0 0.00 0.00 0.00 100 1025.7
20260509121012 44 93 2.0 3.0 0.00 0.00 0.00 100 1025.6
20260509120543 43 73 2.0 3.0 0.00 0.00 0.00 100 1025.6
20260509120012 43 59 1.0 3.0 0.00 0.00 0.00 100 1025.7
20260509115523 43 81 1.0 2.0 0.00 0.00 0.00 100 1025.8
20260509115033 43 128 1.0 2.0 0.00 0.00 0.00 100 1025.7
20260509114532 43 158 0.0 2.0 0.00 0.00 0.00 100 1025.7
20260509114024 43 241 0.0 1.0 0.00 0.00 0.00 100 1025.8
20260509113512 44 19 0.0 2.0 0.00 0.00 0.00 100 1025.9
20260509113013 44 260 0.0 2.0 0.00 0.00 0.00 100 1025.8
20260509112513 44 170 0.0 1.0 0.00 0.00 0.00 100 1025.9
20260509112025 44 156 0.0 1.0 0.00 0.00 0.00 100 1025.8
20260509111513 44 117 0.0 2.0 0.00 0.00 0.00 100 1025.7
20260509111014 44 82 0.0 2.0 0.00 0.00 0.00 100 1025.7
20260509110623 44 98 1.0 1.0 0.00 0.00 0.00 100 1025.7
20260509110023 44 67 1.0 3.0 0.00 0.00 0.00 100 1025.5
20260509105513 44 59 1.0 3.0 0.00 0.00 0.00 100 1025.6
20260509105015 45 195 1.0 3.0 0.00 0.00 0.00 99 1025.5
20260509104523 45 257 1.0 2.0 0.00 0.00 0.00 99 1025.4
20260509104023 46 134 1.0 3.0 0.00 0.00 0.00 99 1025.4
20260509103513 46 102 2.0 3.0 0.00 0.00 0.00 100 1025.4
20260509103023 46 84 1.0 3.0 0.00 0.00 0.00 100 1025.3
20260509102513 46 51 1.0 2.0 0.00 0.00 0.00 100 1025.1
20260509102012 46 224 1.0 2.0 0.00 0.00 0.00 99 1025.1
20260509101523 46 114 1.0 2.0 0.00 0.00 0.00 100 1025.1
20260509101024 46 87 1.0 2.0 0.00 0.00 0.00 100 1025.1
20260509100522 46 84 1.0 2.0 0.00 0.00 0.00 100 1025.1
20260509100014 45 138 0.0 2.0 0.00 0.00 0.00 100 1025.0
20260509095512 46 217 0.0 1.0 0.00 0.00 0.00 99 1025.0
20260509095033 45 257 0.0 1.0 0.00 0.00 0.00 100 1024.9
20260509094523 46 333 1.0 2.0 0.00 0.00 0.00 98 1024.9
20260509094024 46 319 2.0 4.0 0.00 0.00 0.00 99 1024.9
20260509093512 46 317 1.0 4.0 0.00 0.00 0.00 99 1025.0
20260509093022 47 343 1.0 3.0 0.00 0.00 0.00 98 1024.9
20260509092559 47 331 1.0 3.0 0.00 0.00 0.00 97 1024.8
20260509092022 47 228 0.0 1.0 0.00 0.00 0.00 97 1024.9
20260509091524 47 216 0.0 1.0 0.00 0.00 0.00 97 1024.8
20260509091014 48 128 0.0 1.0 0.00 0.00 0.00 96 1024.7
20260509090512 48 149 0.0 1.0 0.00 0.00 0.00 95 1024.7
20260509085524 48 155 1.0 2.0 0.00 0.00 0.00 93 1024.7
20260509085033 48 130 1.0 2.0 0.00 0.00 0.00 93 1024.6
20260509084514 48 65 1.0 2.0 0.00 0.00 0.00 94 1024.5
20260509084023 48 52 1.0 1.0 0.00 0.00 0.00 92 1024.4
20260509083518 49 53 1.0 1.0 0.00 0.00 0.00 92 1024.4
20260509083144 49 224 0.0 2.0 0.00 0.00 0.00 93 1024.4
20260509082513 49 271 1.0 3.0 0.00 0.00 0.00 91 1024.2
20260509082014 50 322 2.0 3.0 0.00 0.00 0.00 89 1024.1
20260509081513 51 320 2.0 3.0 0.00 0.00 0.00 87 1024.1
20260509081022 51 316 2.0 3.0 0.00 0.00 0.00 86 1023.9
20260509080533 51 314 2.0 3.0 0.00 0.00 0.00 85 1023.8
20260509080022 51 318 2.0 3.0 0.00 0.00 0.00 86 1023.7
20260509075513 51 334 2.0 3.0 0.00 0.00 0.00 85 1023.7
20260509075023 51 333 2.0 3.0 0.00 0.00 0.00 85 1023.6
20260509074514 51 338 1.0 3.0 0.00 0.00 0.00 85 1023.6
20260509074023 51 340 2.0 4.0 0.00 0.00 0.00 85 1023.6
20260509073523 51 332 2.0 4.0 0.00 0.00 0.00 85 1023.6
20260509073032 51 321 1.0 3.0 0.00 0.00 0.00 85 1023.5
20260509072514 52 321 1.0 3.0 0.00 0.00 0.00 84 1023.5
20260509072024 52 311 1.0 2.0 0.00 0.00 0.00 83 1023.4
20260509071514 53 326 1.0 3.0 0.00 0.00 0.00 83 1023.3
20260509071023 53 329 1.0 3.0 0.00 0.00 0.00 81 1023.2
20260509070523 54 310 1.0 3.0 0.00 0.00 0.00 78 1023.2
20260509070022 56 329 3.0 6.0 0.00 0.00 0.00 74 1023.1
20260509065516 56 344 5.0 6.0 0.00 0.00 0.00 70 1023.1
20260509065015 57 322 5.0 6.0 0.00 0.00 0.00 70 1023.0
20260509064514 58 322 5.0 7.0 0.00 0.00 0.00 67 1023.0
20260509064013 58 321 6.0 8.0 0.00 0.00 0.00 64 1023.0
20260509063513 58 318 7.0 10.0 0.00 0.00 0.00 63 1022.9
20260509063014 59 314 8.0 10.0 0.00 0.00 0.00 65 1022.9
20260509062523 59 315 8.0 10.0 0.00 0.00 0.00 64 1022.9
20260509062017 60 317 8.0 10.0 0.00 0.00 0.00 61 1022.8
20260509061517 60 318 8.0 10.0 0.00 0.00 0.00 59 1022.7
20260509061014 60 318 8.0 10.0 0.00 0.00 0.00 60 1022.9
20260509060524 60 317 7.0 11.0 0.00 0.00 0.00 59 1022.8
20260509060014 61 311 7.0 11.0 0.00 0.00 0.00 58 1022.8
20260509055528 61 301 7.0 11.0 0.00 0.00 0.00 57 1022.8
20260509055022 61 302 8.0 11.0 0.00 0.00 0.00 57 1022.7
20260509054523 61 302 7.0 11.0 0.00 0.00 0.00 56 1022.7
20260509054022 61 298 7.0 9.0 0.00 0.00 0.00 57 1022.6
20260509053513 62 297 7.0 10.0 0.00 0.00 0.00 55 1022.5
20260509053055 62 293 6.0 10.0 0.00 0.00 0.00 57 1022.6
20260509052522 62 316 6.0 9.0 0.00 0.00 0.00 55 1022.7
20260509052015 62 342 6.0 9.0 0.00 0.00 0.00 51 1022.6
20260509051523 62 8 3.0 6.0 0.00 0.00 0.00 52 1022.6
20260509051024 63 1 4.0 6.0 0.00 0.00 0.00 49 1022.7
20260509050514 63 8 4.0 6.0 0.00 0.00 0.00 51 1022.7
20260509050022 62 11 4.0 6.0 0.00 0.00 0.00 52 1022.7
20260509045514 62 354 3.0 5.0 0.00 0.00 0.00 51 1022.7
20260509045014 63 355 3.0 5.0 0.00 0.00 0.00 49 1022.7
20260509044536 63 2 5.0 7.0 0.00 0.00 0.00 51 1022.6
20260509044013 63 345 5.0 7.0 0.00 0.00 0.00 52 1022.8
20260509043523 63 343 5.0 8.0 0.00 0.00 0.00 52 1022.7
20260509043015 62 331 5.0 8.0 0.00 0.00 0.00 51 1022.8
20260509042512 62 298 6.0 11.0 0.00 0.00 0.00 52 1022.7
20260509042027 61 305 5.0 11.0 0.00 0.00 0.00 54 1022.8
20260509041513 62 339 5.0 8.0 0.00 0.00 0.00 53 1022.8
20260509041015 62 344 6.0 10.0 0.00 0.00 0.00 54 1022.8
20260509040524 61 313 6.0 10.0 0.00 0.00 0.00 55 1022.7
20260509040025 61 297 7.0 10.0 0.00 0.00 0.00 56 1022.8
20260509035522 61 308 7.0 10.0 0.00 0.00 0.00 57 1022.8
20260509035012 61 337 6.0 10.0 0.00 0.00 0.00 56 1022.8
20260509034511 62 349 6.0 11.0 0.00 0.00 0.00 56 1022.8
20260509034011 62 314 7.0 11.0 0.00 0.00 0.00 53 1022.9
20260509033512 61 313 9.0 13.0 0.00 0.00 0.00 54 1022.9
20260509033012 61 315 8.0 13.0 0.00 0.00 0.00 57 1022.8
20260509032512 61 346 6.0 11.0 0.00 0.00 0.00 56 1022.9
20260509032012 60 2 5.0 9.0 0.00 0.00 0.00 59 1022.9
20260509031512 62 4 6.0 10.0 0.00 0.00 0.00 51 1022.9
20260509031022 61 351 5.0 10.0 0.00 0.00 0.00 54 1023.1
20260509030522 61 355 4.0 10.0 0.00 0.00 0.00 53 1023.2
20260509030011 59 345 4.0 10.0 0.00 0.00 0.00 62 1023.2
20260509025521 60 308 5.0 9.0 0.00 0.00 0.00 57 1023.2
20260509025023 59 307 6.0 10.0 0.00 0.00 0.00 58 1023.3
20260509024511 60 317 6.0 10.0 0.00 0.00 0.00 57 1023.3
20260509024012 60 337 5.0 10.0 0.00 0.00 0.00 51 1023.4
20260509023511 59 328 4.0 7.0 0.00 0.00 0.00 52 1023.4
20260509022511 58 1 3.0 6.0 0.00 0.00 0.00 56 1023.6
20260509022022 59 318 3.0 6.0 0.00 0.00 0.00 52 1023.7
20260509021512 58 321 3.0 6.0 0.00 0.00 0.00 54 1023.9
20260509021022 58 346 3.0 5.0 0.00 0.00 0.00 54 1024.0
20260509020513 58 347 4.0 6.0 0.00 0.00 0.00 56 1024.0
20260509020022 57 34 4.0 7.0 0.00 0.00 0.00 63 1024.1
20260509015512 58 30 4.0 7.0 0.00 0.00 0.00 54 1024.2
20260509015021 57 329 4.0 7.0 0.00 0.00 0.00 53 1024.2
20260509014521 56 306 3.0 6.0 0.00 0.00 0.00 58 1024.2
20260509014012 57 5 2.0 5.0 0.00 0.00 0.00 55 1024.3
20260509013512 57 14 3.0 6.0 0.00 0.00 0.00 55 1024.3
20260509013011 57 8 3.0 6.0 0.00 0.00 0.00 50 1024.4
20260509012522 57 321 3.0 5.0 0.00 0.00 0.00 52 1024.5
20260509012022 56 306 2.0 4.0 0.00 0.00 0.00 58 1024.5
20260509011512 56 351 3.0 5.0 0.00 0.00 0.00 58 1024.5
20260509011012 56 67 4.0 5.0 0.00 0.00 0.00 62 1024.5
20260509010512 55 54 4.0 5.0 0.00 0.00 0.00 66 1024.6
20260509010031 54 15 3.0 6.0 0.00 0.00 0.00 70 1024.6
20260509005512 53 305 4.0 7.0 0.00 0.00 0.00 72 1024.6
20260509005022 53 318 4.0 7.0 0.00 0.00 0.00 69 1024.7
20260509004521 54 359 2.0 3.0 0.00 0.00 0.00 65 1024.7
20260509004022 53 7 2.0 4.0 0.00 0.00 0.00 69 1024.7
20260509003542 52 0 4.0 7.0 0.00 0.00 0.00 75 1024.8
20260509003021 51 348 4.0 7.0 0.00 0.00 0.00 76 1024.7
20260509002521 51 319 3.0 6.0 0.00 0.00 0.00 75 1024.8
20260509002022 49 263 2.0 4.0 0.00 0.00 0.00 84 1024.9
20260509001522 50 323 2.0 4.0 0.00 0.00 0.00 78 1024.9
20260509000522 49 33 2.0 5.0 0.00 0.00 0.00 91 1025.1
20260509000012 48 4 2.0 5.0 0.00 0.00 0.00 93 1025.0
20260508235522 47 309 2.0 4.0 0.00 0.00 0.00 99 1025.0
20260508235012 45 281 2.0 4.0 0.00 0.00 0.00 98 1025.0
20260508234512 46 306 2.0 4.0 0.00 0.00 0.00 99 1025.0
20260508234013 46 296 2.0 4.0 0.00 0.00 0.00 99 1025.0
20260508233521 45 297 2.0 4.0 0.00 0.00 0.00 99 1025.0
20260508233021 45 307 2.0 4.0 0.00 0.00 0.00 100 1025.1
20260508232522 45 318 2.0 4.0 0.00 0.00 0.00 99 1025.1
20260508232022 45 312 2.0 4.0 0.00 0.00 0.00 99 1025.1
20260508231512 44 309 1.0 2.0 0.00 0.00 0.00 99 1025.1
20260508231057 44 296 2.0 3.0 0.00 0.00 0.00 99 1025.1
20260508230522 44 234 2.0 3.0 0.00 0.00 0.00 99 1024.9
20260508230022 45 194 1.0 3.0 0.00 0.00 0.00 99 1024.9
20260508225532 44 189 1.0 3.0 0.00 0.00 0.00 99 1024.9
20260508225022 44 356 1.0 3.0 0.00 0.00 0.00 99 1024.9
20260508224522 44 78 1.0 3.0 0.00 0.00 0.00 99 1024.9
20260508224022 44 70 2.0 3.0 0.00 0.00 0.00 99 1024.8
20260508223512 44 40 2.0 3.0 0.00 0.00 0.00 99 1024.6
20260508223032 44 54 1.0 2.0 0.00 0.00 0.00 99 1024.8
20260508222521 44 47 1.0 2.0 0.00 0.00 0.00 99 1024.6
20260508222012 43 37 1.0 3.0 0.00 0.00 0.00 99 1024.6
20260508221522 43 45 2.0 3.0 0.00 0.00 0.00 99 1024.5
20260508221031 43 35 1.0 2.0 0.00 0.00 0.00 99 1024.5
20260508220512 43 355 1.0 3.0 0.00 0.00 0.00 99 1024.4
20260508220022 43 321 1.0 3.0 0.00 0.00 0.00 99 1024.3
20260508215522 43 299 0.0 1.0 0.00 0.00 0.00 99 1024.4
20260508215021 43 341 1.0 2.0 0.00 0.00 0.00 98 1024.3
20260508214521 43 96 1.0 2.0 0.00 0.00 0.00 98 1024.2
20260508214032 42 78 0.0 2.0 0.00 0.00 0.00 98 1024.3
20260508213511 42 62 0.0 1.0 0.00 0.00 0.00 98 1024.1
20260508213022 42 194 0.0 1.0 0.00 0.00 0.00 98 1024.1
20260508212511 41 160 0.0 2.0 0.00 0.00 0.00 98 1024.1
20260508212012 41 129 1.0 2.0 0.00 0.00 0.00 99 1024.2
20260508211522 41 124 1.0 2.0 0.00 0.00 0.00 100 1024.1
20260508211012 41 126 1.0 2.0 0.00 0.00 0.00 100 1024.1
20260508210512 41 136 1.0 2.0 0.00 0.00 0.00 100 1023.9
20260508210012 40 115 1.0 2.0 0.00 0.00 0.00 100 1023.7
20260508205522 39 144 1.0 2.0 0.00 0.00 0.00 100 1023.6
20260508205011 39 157 1.0 2.0 0.00 0.00 0.00 100 1023.6
20260508204512 38 156 1.0 2.0 0.00 0.00 0.00 100 1023.5
20260508204013 39 137 1.0 2.0 0.00 0.00 0.00 100 1023.4
20260508203522 38 71 1.0 3.0 0.00 0.00 0.00 100 1023.4
20260508203012 37 81 2.0 3.0 0.00 0.00 0.00 100 1023.2
20260508202522 37 124 1.0 2.0 0.00 0.00 0.00 100 1023.1
20260508202032 37 127 1.0 2.0 0.00 0.00 0.00 100 1023.0
20260508201522 37 118 1.0 1.0 0.00 0.00 0.00 100 1022.9
20260508201031 36 107 1.0 3.0 0.00 0.00 0.00 100 1023.0
20260508200524 37 82 1.0 4.0 0.00 0.00 0.00 100 1022.9
20260508200012 37 57 2.0 4.0 0.00 0.00 0.00 100 1022.8
20260508195521 37 79 1.0 3.0 0.00 0.00 0.00 100 1022.8
20260508195011 37 147 1.0 2.0 0.00 0.00 0.00 100 1022.7
20260508194511 38 163 1.0 3.0 0.00 0.00 0.00 100 1022.7
20260508194012 37 135 1.0 3.0 0.00 0.00 0.00 100 1022.6
20260508193512 37 120 1.0 2.0 0.00 0.00 0.00 99 1022.5
20260508193033 37 118 1.0 2.0 0.00 0.00 0.00 100 1022.4
20260508192512 37 97 1.0 2.0 0.00 0.00 0.00 100 1022.4
20260508192022 37 106 1.0 2.0 0.00 0.00 0.00 100 1022.2
20260508191522 37 124 1.0 2.0 0.00 0.00 0.00 100 1022.3
20260508191022 38 61 2.0 4.0 0.00 0.00 0.00 100 1022.3
20260508190512 38 114 2.0 4.0 0.00 0.00 0.00 100 1022.3
20260508190022 38 146 2.0 4.0 0.00 0.00 0.00 100 1022.2
20260508185511 39 104 1.0 3.0 0.00 0.00 0.00 100 1022.3
20260508185012 39 122 1.0 3.0 0.00 0.00 0.00 100 1022.3
20260508184512 39 170 1.0 3.0 0.00 0.00 0.00 100 1022.3
20260508184012 39 165 2.0 3.0 0.00 0.00 0.00 100 1022.1
20260508183512 40 141 1.0 3.0 0.00 0.00 0.00 100 1022.2
20260508183012 40 133 2.0 3.0 0.00 0.00 0.00 100 1022.2
20260508182522 40 144 2.0 4.0 0.00 0.00 0.00 100 1022.2
20260508182031 41 46 2.0 4.0 0.00 0.00 0.00 100 1022.1
20260508181512 40 43 2.0 4.0 0.00 0.00 0.00 100 1022.2
20260508181035 40 82 1.0 3.0 0.00 0.00 0.00 100 1022.2
20260508180512 41 74 2.0 5.0 0.00 0.00 0.00 100 1022.0
20260508180021 42 13 4.0 6.0 0.00 0.00 0.00 100 1022.0
20260508175511 41 16 3.0 6.0 0.00 0.00 0.00 100 1022.0
20260508175022 41 124 3.0 6.0 0.00 0.00 0.00 100 1022.1
20260508174511 41 52 3.0 7.0 0.00 0.00 0.00 100 1021.9
20260508174011 41 7 3.0 7.0 0.00 0.00 0.00 100 1022.1
20260508173522 41 111 3.0 7.0 0.00 0.00 0.00 100 1022.1
20260508173022 41 54 3.0 6.0 0.00 0.00 0.00 100 1021.8
20260508172522 40 62 3.0 6.0 0.00 0.00 0.00 100 1022.0
20260508172023 41 116 3.0 5.0 0.00 0.00 0.00 100 1021.8
20260508171522 41 37 3.0 7.0 0.00 0.00 0.00 100 1022.0
20260508171012 41 21 3.0 7.0 0.00 0.00 0.00 100 1022.0
20260508170522 42 105 3.0 5.0 0.00 0.00 0.00 100 1022.0
20260508170022 42 124 2.0 5.0 0.00 0.00 0.00 100 1022.0
20260508165521 42 82 2.0 4.0 0.00 0.00 0.00 100 1022.2
20260508165012 42 102 2.0 4.0 0.00 0.00 0.00 100 1022.1
20260508164521 43 143 3.0 6.0 0.00 0.00 0.00 100 1021.9
20260508164012 43 112 3.0 6.0 0.00 0.00 0.00 100 1021.9
20260508163511 44 96 3.0 6.0 0.00 0.00 0.00 99 1022.0
20260508163028 44 80 2.0 4.0 0.00 0.00 0.00 99 1021.9
20260508162522 44 66 3.0 4.0 0.00 0.00 0.00 99 1021.8
20260508162022 45 54 3.0 5.0 0.00 0.00 0.00 99 1021.9
20260508161522 45 61 4.0 6.0 0.00 0.00 0.00 97 1021.8
20260508161022 45 75 3.0 6.0 0.00 0.00 0.00 97 1021.7
20260508160521 45 66 2.0 4.0 0.00 0.00 0.00 97 1021.7
20260508160021 46 57 3.0 5.0 0.00 0.00 0.00 95 1021.8
20260508155522 47 63 4.0 5.0 0.00 0.00 0.00 93 1021.7
20260508155035 47 70 4.0 5.0 0.00 0.00 0.00 90 1021.7
20260508154513 47 74 3.0 4.0 0.00 0.00 0.00 92 1021.7
20260508154058 48 75 3.0 6.0 0.00 0.00 0.00 89 1021.7
20260508153512 48 73 4.0 6.0 0.00 0.00 0.00 89 1021.7
20260508153022 48 75 4.0 6.0 0.00 0.00 0.00 88 1021.7
20260508152522 49 71 4.0 5.0 0.00 0.00 0.00 88 1021.7
20260508152012 48 90 3.0 5.0 0.00 0.00 0.00 89 1021.6
20260508151512 48 86 2.0 3.0 0.00 0.00 0.00 89 1021.6
20260508151022 48 65 1.0 2.0 0.00 0.00 0.00 92 1021.7
20260508150544 48 49 0.0 2.0 0.00 0.00 0.00 92 1021.5
20260508150021 48 19 0.0 2.0 0.00 0.00 0.00 93 1021.7
20260508145557 48 333 0.0 1.0 0.00 0.00 0.00 92 1021.7
20260508145021 48 70 0.0 2.0 0.00 0.00 0.00 90 1021.7
20260508144511 48 51 1.0 2.0 0.00 0.00 0.00 91 1021.6
20260508144012 48 293 1.0 3.0 0.00 0.00 0.00 93 1021.6
20260508143521 49 282 2.0 4.0 0.00 0.00 0.00 90 1021.6
20260508143012 49 299 3.0 4.0 0.00 0.00 0.00 89 1021.5
20260508142522 49 279 3.0 4.0 0.00 0.00 0.00 89 1021.6
20260508142012 49 264 4.0 6.0 0.00 0.00 0.00 87 1021.4
20260508141512 49 314 7.0 9.0 0.00 0.00 0.00 86 1021.6
20260508141012 49 296 6.0 9.0 0.00 0.00 0.00 86 1021.4
20260508140522 49 296 6.0 9.0 0.00 0.00 0.00 86 1021.4
20260508140022 49 317 5.0 8.0 0.00 0.00 0.00 87 1021.4
20260508135522 49 321 6.0 9.0 0.00 0.00 0.00 87 1021.3